GW1682 Weather Reports


Display with metric or nautical units.
time (UTC)temp
F
wind
direction
speed
MPH
gust
MPH
rain 1hr
in
rain 24hr
in
rain mn
in
humidity
%
barometer
mb
20260902064906 87 1 5.0 10.0 0.00 0.00 0.00 37 1015.3
20260902063401 86 48 6.0 13.0 0.00 0.00 0.00 38 1015.2
20260902061900 86 0 3.0 13.0 0.00 0.00 0.00 39 1015.3
20260902060402 85 343 4.0 12.0 0.00 0.00 0.00 40 1015.3
20260902054906 85 358 4.0 9.0 0.00 0.00 0.00 41 1015.2
20260902053401 84 0 5.0 12.0 0.00 0.00 0.00 42 1015.2
20260902051903 84 337 3.0 11.0 0.00 0.00 0.00 42 1015.3
20260902050401 83 114 4.0 9.0 0.00 0.00 0.00 43 1015.2
20260902044900 82 155 1.0 5.0 0.00 0.00 0.00 44 1015.3
20260902043402 82 145 0.0 5.0 0.00 0.00 0.00 45 1015.2
20260902041900 82 123 0.0 2.0 0.00 0.00 0.00 45 1015.2
20260902040401 82 8 1.0 6.0 0.00 0.00 0.00 45 1015.2
20260902034902 82 306 2.0 5.0 0.00 0.00 0.00 42 1015.1
20260902033401 82 330 2.0 7.0 0.00 0.00 0.00 43 1014.9
20260902031901 82 343 6.0 13.0 0.00 0.00 0.00 43 1014.8
20260902030401 82 333 6.0 12.0 0.00 0.00 0.00 43 1014.6
20260902024901 82 323 6.0 13.0 0.00 0.00 0.00 43 1014.6
20260902023402 83 357 7.0 12.0 0.00 0.00 0.00 42 1014.6
20260902021900 83 329 5.0 11.0 0.00 0.00 0.00 42 1014.6
20260902020404 83 353 7.0 15.0 0.00 0.00 0.00 42 1014.6
20260902014902 83 358 6.0 13.0 0.00 0.00 0.00 42 1014.7
20260902013404 83 0 6.0 13.0 0.00 0.00 0.00 41 1014.7
20260902011900 83 338 6.0 13.0 0.00 0.00 0.00 42 1014.6
20260902010406 84 351 6.0 13.0 0.00 0.00 0.00 41 1014.6
20260902004901 84 337 5.0 13.0 0.00 0.00 0.00 41 1014.6
20260902003404 84 13 6.0 13.0 0.00 0.00 0.00 42 1014.6
20260902000406 84 0 2.0 7.0 0.00 0.00 0.00 43 1014.5
20260901234901 84 39 2.0 5.0 0.00 0.00 0.00 43 1014.6
20260901233409 85 299 2.0 9.0 0.00 0.00 0.00 44 1014.6
20260901231900 84 97 2.0 6.0 0.00 0.00 0.00 44 1014.7
20260901230405 84 1 2.0 7.0 0.00 0.00 0.00 47 1014.7
20260901224907 84 73 2.0 5.0 0.00 0.00 0.00 47 1014.8
20260901223405 84 114 2.0 6.0 0.00 0.00 0.00 47 1014.8
20260901221902 84 44 2.0 6.0 0.00 0.00 0.00 47 1014.7
20260901213407 84 8 0.0 2.0 0.00 0.00 0.00 47 1014.8
20260901211902 84 8 0.0 1.0 0.00 0.00 0.00 47 1014.8
20260901204902 84 93 0.0 2.0 0.00 0.00 0.00 47 1014.7
20260901203408 84 120 0.0 2.0 0.00 0.00 0.00 47 1014.8
20260901201901 84 0 0.0 2.0 0.00 0.00 0.00 47 1014.8
20260901200405 85 0 0.0 2.0 0.00 0.00 0.00 47 1014.8
20260901193407 85 75 0.0 2.0 0.00 0.00 0.00 46 1014.8
20260901191909 85 16 0.0 2.0 0.00 0.00 0.00 45 1014.9
20260901190404 85 16 0.0 2.0 0.00 0.00 0.00 44 1014.8
20260901184901 86 17 0.0 2.0 0.00 0.00 0.00 43 1014.6
20260901183405 86 0 1.0 2.0 0.00 0.00 0.00 43 1014.6
20260901181901 86 85 0.0 2.0 0.00 0.00 0.00 43 1014.4
20260901174906 87 51 1.0 4.0 0.00 0.00 0.00 41 1014.1
20260901173403 87 344 0.0 5.0 0.00 0.00 0.00 41 1014.0
20260901171902 87 18 1.0 4.0 0.00 0.00 0.00 41 1013.9
20260901164918 88 6 2.0 5.0 0.00 0.00 0.00 40 1013.8
20260901163403 89 66 3.0 9.0 0.00 0.00 0.00 39 1013.5
20260901161900 89 24 2.0 10.0 0.00 0.00 0.00 39 1013.4
20260901160406 90 158 2.0 6.0 0.00 0.00 0.00 38 1013.5
20260901154902 90 313 2.0 6.0 0.00 0.00 0.00 37 1013.4
20260901153403 91 48 0.0 6.0 0.00 0.00 0.00 36 1013.4
20260901151901 91 59 2.0 6.0 0.00 0.00 0.00 35 1013.4
20260901150407 92 31 2.0 6.0 0.00 0.00 0.00 35 1013.5
20260901143403 93 307 1.0 6.0 0.00 0.00 0.00 34 1013.5
20260901141903 92 329 2.0 7.0 0.00 0.00 0.00 34 1013.7
20260901134903 93 0 1.0 3.0 0.00 0.00 0.00 34 1013.7
20260901133403 93 293 0.0 5.0 0.00 0.00 0.00 34 1013.7
20260901131901 93 172 3.0 10.0 0.00 0.00 0.00 34 1013.5
20260901130407 93 309 1.0 7.0 0.00 0.00 0.00 34 1013.7
20260901124901 93 10 2.0 5.0 0.00 0.00 0.00 33 1013.7
20260901123402 94 45 2.0 10.0 0.00 0.00 0.00 32 1014.1
20260901121901 94 1 2.0 5.0 0.00 0.00 0.00 33 1014.2
20260901120404 92 327 2.0 5.0 0.00 0.00 0.00 33 1014.3
20260901114905 94 186 7.0 14.0 0.00 0.00 0.00 33 1014.2
20260901113404 93 354 2.0 11.0 0.00 0.00 0.00 33 1014.3
20260901111903 0 0.0 12.0 0.00 0.00 0.00 1014.2
20260901110413 94 305 8.0 10.0 0.00 0.00 0.00 33 1014.1
20260901104903 0 0.0 0.0 0.00 0.00 0.00 1014.3
20260901101900 0 0.0 0.0 0.00 0.00 0.00 1014.5
20260901100402 0 0.0 0.0 0.00 0.00 0.00 1014.6
20260901094901 0 0.0 14.0 0.00 0.00 0.00 1014.5
20260901093407 91 7 3.0 12.0 0.00 0.00 0.00 33 1014.6
20260901091900 90 55 6.0 13.0 0.00 0.00 0.00 35 1014.6
20260901090404 90 0 7.0 14.0 0.00 0.00 0.00 36 1014.5
20260901084910 89 354 6.0 13.0 0.00 0.00 0.00 36 1014.6
20260901083403 89 336 5.0 13.0 0.00 0.00 0.00 37 1014.7
20260901080405 89 316 2.0 7.0 0.00 0.00 0.00 39 1014.6
20260901074901 88 358 3.0 12.0 0.00 0.00 0.00 39 1014.6
20260901073402 87 329 2.0 11.0 0.00 0.00 0.00 41 1014.5
20260901071901 86 1 4.0 10.0 0.00 0.00 0.00 40 1014.5
20260901070402 85 0 3.0 6.0 0.00 0.00 0.00 43 1014.3